This is the latest recevied weather packets stored in our database for station/object YO3FNC-10. If no packets are shown the sender has not sent any weather packets the latest 10 day(s).
| Time | Temp. | Humidity | Pressure | Rain* | Wind** | Luminosity | Snow |
|---|---|---|---|---|---|---|---|
| 1787947172 | 26.67° C | 34% | 1021.9 hPa | - | - | - | - |
| 1787946272 | 27.22° C | 32% | 1022 hPa | - | - | - | - |
| 1787945372 | 27.22° C | 32% | 1021.9 hPa | - | - | - | - |
| 1787944472 | 27.78° C | 31% | 1022 hPa | - | - | - | - |
| 1787943572 | 27.78° C | 31% | 1022 hPa | - | - | - | - |
| 1787942672 | 27.78° C | 30% | 1021.8 hPa | - | - | - | - |
| 1787941772 | 27.78° C | 30% | 1021.7 hPa | - | - | - | - |
| 1787940871 | 28.33° C | 30% | 1021.6 hPa | - | - | - | - |
| 1787939971 | 28.33° C | 30% | 1021.5 hPa | - | - | - | - |
| 1787939071 | 29.44° C | 28% | 1021.5 hPa | - | - | - | - |
| 1787938171 | 30.56° C | 27% | 1021.3 hPa | - | - | - | - |
| 1787937271 | 31.11° C | 28% | 1021.3 hPa | - | - | - | - |
| 1787936378 | 29.44° C | 29% | 1021.2 hPa | - | - | - | - |
| 1787935471 | 29.44° C | 29% | 1021 hPa | - | - | - | - |
| 1787934571 | 29.44° C | 28% | 1020.8 hPa | - | - | - | - |
| 1787933671 | 29.44° C | 28% | 1020.8 hPa | - | - | - | - |
| 1787932770 | 29.44° C | 28% | 1020.7 hPa | - | - | - | - |
| 1787931870 | 30° C | 27% | 1020.8 hPa | - | - | - | - |
| 1787930970 | 29.44° C | 27% | 1020.9 hPa | - | - | - | - |
| 1787930070 | 29.44° C | 27% | 1020.8 hPa | - | - | - | - |
| 1787929170 | 30° C | 27% | 1020.9 hPa | - | - | - | - |
| 1787928269 | 30.56° C | 26% | 1020.8 hPa | - | - | - | - |
| 1787927367 | 31.11° C | 25% | 1020.9 hPa | - | - | - | - |
| 1787926467 | 30.56° C | 27% | 1020.8 hPa | - | - | - | - |
| 1787925566 | 30° C | 27% | 1021.1 hPa | - | - | - | - |
* Rain since midnight (hover to see other rain measurements)
** Current wind speed in m/s (hover to see current wind gust speed)